[[{"header":{"parameterUnit":"m.s-1","parameterCategory":1,"la1":30.2991,"la2":30.254,"lo1":-89.0895,"lo2":-89.0444,"dy":0.0017,"dx":0.0017,"nx":28,"ny":28,"refTime":"2025-07-09T09:00:00:Z","depth":0,"parameterNumber":2,"parameterNumberName":"U-component_of_WINDS"},"data":[0,0,0,0,0,0,0,0,0,0,0,0,0,0,0,0,0,0,0,0,0,0,0,0,0,0,0,0,0,0,0,0,0,0,0,0,0,0,0,0,0,0,0,0,0,0,0,0,0,0,0,0,0,0,0,0,0,0,3.5783,3.5785,0,3.5927,3.5929,3.5931,3.5946,3.5944,3.5943,3.5941,3.609,3.6095,3.6101,0,0,0,0,0,0,0,0,0,0,0,0,0,3.5523,3.5527,3.5783,3.5785,3.5787,3.5927,3.5929,3.5931,3.5946,3.5944,3.5942,3.5941,3.6088,3.6095,3.6101,0,0,0,0,0,0,0,0,0,0,0,0,0,3.5648,3.5529,3.5783,3.5811,3.5815,3.5927,3.5929,3.5932,3.5946,3.5944,3.5942,3.594,3.6086,3.6094,3.6102,3.6196,0,0,3.6126,3.613,0,0,0,0,0,0,0,0,3.5641,3.5658,3.5805,3.5809,3.5814,3.5916,3.5892,3.602,3.5947,3.5896,3.5941,3.5939,3.6034,3.6046,3.6078,3.6203,3.6209,3.6127,3.6132,3.6135,3.6138,0,0,0,0,0,0,0,3.5632,3.5652,3.584,3.5807,3.5813,3.5817,3.5833,3.5916,3.5976,3.5901,3.5902,3.5919,3.6036,3.607,3.6082,3.6211,3.6127,3.6134,3.6139,3.6142,3.642,3.6422,0,0,0,0,0,0,3.5618,3.5644,3.5836,3.5844,3.572,3.5824,3.5841,3.5886,3.5975,3.5987,3.5921,3.5919,3.6058,3.6072,3.6087,3.6202,3.6135,3.6143,3.6147,3.6417,3.6421,3.6423,0,0,0,0,0,0,3.5613,3.5635,3.583,3.5745,3.577,3.583,3.5881,3.589,3.5924,3.599,3.6001,3.5944,3.6057,3.6076,3.6168,3.6207,3.6146,3.6154,3.6414,3.6418,3.6422,3.6432,0,0,0,0,0,0,3.5605,3.5633,3.5668,3.5746,3.5774,3.5908,3.5883,3.5894,3.5937,3.5937,3.6015,3.6026,3.6056,3.6156,3.6176,3.6217,3.616,3.6411,3.6416,3.6421,3.6429,3.6436,3.6442,0,0,0,0,0,3.5596,3.5666,3.567,3.5693,3.582,3.591,3.5927,3.5959,3.5941,3.5977,3.602,3.6024,3.62,3.6166,3.6188,3.6232,3.6409,3.6415,3.642,3.6425,3.6434,3.6442,0,0,0,0,0,0,3.5592,3.5676,3.5682,3.5779,3.5837,3.5912,3.5959,3.5968,3.6033,3.6029,3.6068,3.6086,3.6176,3.6214,3.6174,3.6328,3.6303,3.6313,3.6299,3.6308,3.6315,3.6302,3.6167,0,0,0,0,0,3.5602,3.5668,3.5739,3.5818,3.5847,3.5898,3.5938,3.5959,3.6021,3.6045,3.6095,3.6155,3.6224,3.6269,3.6336,3.6435,3.6452,3.6477,3.6484,3.6489,3.6497,3.6551,3.6563,3.6442,3.6442,3.6442,0,0,3.5624,3.5679,3.5718,3.5818,3.5866,3.5933,3.5918,3.599,3.604,3.6057,3.6146,3.6185,3.6255,3.6351,3.6396,3.6385,3.6534,3.6496,3.65,3.6505,3.6558,3.657,3.658,3.6446,3.6446,3.6445,0,0,3.5698,3.5747,3.5817,3.5865,3.5937,3.5972,3.5989,3.6063,3.6089,3.618,3.6194,3.6255,3.6373,3.6422,3.6463,3.6558,3.6563,3.6579,3.6613,3.6666,3.6675,3.6684,3.6716,3.6727,3.6587,3.6587,3.6587,0,3.5716,3.5818,3.5853,3.5924,3.5968,3.5986,3.6058,3.6103,3.6194,3.6224,3.6211,3.636,3.6408,3.6516,3.6539,3.6572,3.6592,3.6568,3.6671,3.668,3.6689,3.672,3.6732,3.6588,3.6588,3.6588,3.6588,0,3.5836,3.5906,3.5955,3.6041,3.6091,3.6162,3.6209,3.6255,3.6272,3.6308,3.64,3.646,3.6539,3.6567,3.6584,3.6677,3.6668,3.6663,3.6638,3.67,3.673,3.6743,3.659,3.659,3.6589,3.6589,0,0,3.5908,3.6014,3.6031,3.6071,3.6153,3.6208,3.6281,3.6358,3.6397,3.646,3.6521,3.6622,3.6618,3.6664,3.6687,3.6734,3.6804,3.6723,3.6726,3.6734,3.6909,3.691,3.6923,3.681,3.6812,3.6814,3.6902,0,3.599,3.6118,3.6153,3.6263,3.6328,3.6347,3.6411,3.6468,3.6505,3.6566,3.6606,3.6676,3.6666,3.6694,3.6741,3.6785,3.6839,3.678,3.6866,3.6869,3.6845,3.6939,3.6941,3.702,3.6914,3.6916,3.6918,0,3.6101,3.6165,3.6281,3.6355,3.6384,3.644,3.6514,3.6572,3.6639,3.6662,3.6714,3.6733,3.6811,3.6784,3.6891,3.685,3.6888,3.6916,3.692,3.6926,3.6895,3.6946,3.7047,3.7057,3.6937,3.6935,3.6934,0,3.6139,3.6256,3.634,3.6373,3.6462,3.6501,3.654,3.6604,3.6649,3.6714,3.6743,3.6817,3.6857,3.6914,3.6953,3.6931,3.7057,3.7034,3.7077,3.7076,3.71,3.7097,3.7205,3.7129,3.7129,3.7129,3.7129,0,3.6225,3.6294,3.6358,3.6409,3.6488,3.6529,3.6606,3.6646,3.6703,3.6763,3.6786,3.6842,3.6891,3.6954,3.6986,3.7069,3.7088,3.7108,3.7115,3.7104,3.7101,3.7128,3.7122,3.7132,3.7131,3.7131,3.713,0,3.6279,3.6325,3.6418,3.6495,3.6516,3.6571,3.6637,3.6688,3.6726,3.6801,3.6821,3.6881,3.6956,3.7002,3.7098,3.7119,3.721,3.7216,3.7187,3.7189,3.7229,3.7224,3.7355,3.7374,3.7288,3.7289,3.7289,0,3.6329,3.6383,3.6466,3.6508,3.6547,3.6614,3.666,3.6703,3.6749,3.683,3.6871,3.6948,3.7011,3.713,3.7182,3.7256,3.7262,3.7304,3.7273,3.7261,3.726,3.7255,3.7261,3.7308,3.7308,3.7309,3.7309,0,3.6413,3.6433,3.6498,3.6571,3.6624,3.6684,3.6744,3.6777,3.683,3.6881,3.6958,3.7008,3.7105,3.7181,3.7259,3.73,3.7313,3.7319,3.7333,3.7321,3.73,3.731,3.7198,3.7315,3.7314,3.7314,3.7314,3.7314,3.6465,3.6514,3.658,3.6651,3.6701,3.6756,3.6808,3.6852,3.6917,3.6999,3.7022,3.7102,3.7168,3.7274,3.7317,3.7381,3.7375,3.7395,3.74,3.7403,3.7403,3.7293,3.7396,3.7396,3.7396,3.7396,3.7396,0,3.6548,3.6592,3.6657,3.674,3.6796,3.6805,3.6872,3.6918,3.6988,3.7049,3.7111,3.72,3.7274,3.7332,3.7408,3.7448,3.7456,3.7467,3.7463,3.7472,3.7405,3.7385,3.7459,3.7459,3.7459,3.7459,3.7459,3.7459,3.6597,3.6679,3.6708,3.6815,3.6859,3.6938,3.6975,3.7026,3.7075,3.7173,3.7234,3.7272,3.7332,3.7413,3.7481,3.7497,3.7523,3.7531,3.7547,3.7483,3.7476,3.747,3.745,3.7537,3.7537,3.7608,3.7609,3.761]},{"header":{"parameterUnit":"m.s-1","parameterCategory":1,"la1":30.2991,"la2":30.254,"lo1":-89.0895,"lo2":-89.0444,"dy":0.0017,"dx":0.0017,"nx":28,"ny":28,"refTime":"2025-07-09T09:00:00:Z","depth":0,"parameterNumber":3,"parameterNumberName":"V-component_of_WINDS"},"data":[0,0,0,0,0,0,0,0,0,0,0,0,0,0,0,0,0,0,0,0,0,0,0,0,0,0,0,0,0,0,0,0,0,0,0,0,0,0,0,0,0,0,0,0,0,0,0,0,0,0,0,0,0,0,0,0,0,0,3.5117,3.5119,0,3.5319,3.5321,3.5324,3.5349,3.5347,3.5345,3.5344,3.5546,3.5553,3.556,0,0,0,0,0,0,0,0,0,0,0,0,0,3.4745,3.4752,3.5116,3.5119,3.5121,3.5319,3.5322,3.5324,3.535,3.5347,3.5345,3.5343,3.5544,3.5552,3.5561,0,0,0,0,0,0,0,0,0,0,0,0,0,3.4923,3.4754,3.5116,3.5158,3.5164,3.5318,3.5322,3.5325,3.535,3.5347,3.5344,3.5342,3.5541,3.5552,3.5562,3.5687,0,0,3.5595,3.56,0,0,0,0,0,0,0,0,3.4913,3.4937,3.5149,3.5155,3.5162,3.5306,3.5265,3.5446,3.5351,3.5279,3.5344,3.534,3.5468,3.5485,3.5529,3.5697,3.5706,3.5596,3.5603,3.5607,3.561,0,0,0,0,0,0,0,3.4901,3.4928,3.5196,3.5152,3.516,3.5165,3.5187,3.53,3.5387,3.5285,3.5288,3.5311,3.5471,3.5519,3.5534,3.5709,3.5596,3.5606,3.5612,3.5616,3.5987,3.599,0,0,0,0,0,0,3.4881,3.4918,3.519,3.5203,3.5028,3.5174,3.5199,3.5263,3.5386,3.5403,3.5314,3.5312,3.5502,3.5522,3.5541,3.5695,3.5607,3.5617,3.5624,3.5983,3.5987,3.5991,0,0,0,0,0,0,3.4873,3.4905,3.5182,3.5061,3.5096,3.5183,3.5255,3.5268,3.5316,3.5408,3.5423,3.5347,3.55,3.5526,3.5651,3.5703,3.5622,3.5632,3.5979,3.5985,3.5989,3.6004,0,0,0,0,0,0,3.4863,3.4902,3.4952,3.5062,3.5103,3.529,3.5259,3.5274,3.5335,3.5335,3.5443,3.5458,3.55,3.5635,3.5662,3.5716,3.5641,3.5975,3.5982,3.5988,3.6,3.6009,3.6017,0,0,0,0,0,3.4849,3.4948,3.4955,3.4988,3.5167,3.5293,3.5316,3.5364,3.5339,3.5389,3.5448,3.5454,3.5692,3.5647,3.5678,3.5736,3.5972,3.598,3.5987,3.5996,3.6007,3.6017,0,0,0,0,0,0,3.4841,3.4963,3.4972,3.511,3.5191,3.5297,3.5362,3.5375,3.5464,3.5459,3.5513,3.5537,3.5659,3.571,3.5657,3.5863,3.583,3.5844,3.5825,3.5837,3.5846,3.5831,3.565,0,0,0,0,0,3.4855,3.4949,3.505,3.5161,3.5201,3.5274,3.5331,3.536,3.5446,3.548,3.5548,3.5629,3.5722,3.5783,3.5873,3.6006,3.603,3.6062,3.607,3.6077,3.6089,3.6162,3.6177,3.6016,3.6016,3.6016,0,0,3.4886,3.4964,3.5019,3.5161,3.5228,3.5321,3.5303,3.5403,3.5473,3.5495,3.5617,3.5669,3.5763,3.5893,3.5953,3.5939,3.6138,3.6087,3.6092,3.61,3.6171,3.6186,3.6199,3.6021,3.602,3.6019,0,0,3.4989,3.5058,3.5158,3.5225,3.5326,3.5374,3.5397,3.5502,3.5538,3.5661,3.568,3.5761,3.5921,3.5987,3.6041,3.6167,3.6176,3.6195,3.6242,3.6312,3.6325,3.6336,3.6381,3.6396,3.6206,3.6206,3.6206,0,3.5013,3.5157,3.5207,3.5307,3.5368,3.5393,3.5493,3.5555,3.568,3.5721,3.5703,3.5903,3.5968,3.6113,3.6143,3.6187,3.6214,3.6184,3.6319,3.6331,3.6343,3.6385,3.6402,3.6208,3.6208,3.6208,3.6207,0,3.5182,3.5281,3.5349,3.547,3.5539,3.5638,3.5701,3.5764,3.5787,3.5836,3.596,3.6039,3.6145,3.6182,3.6205,3.6329,3.6317,3.6309,3.6277,3.6359,3.64,3.6417,3.621,3.621,3.6209,3.6209,0,0,3.5287,3.5434,3.5458,3.5513,3.5625,3.5702,3.5801,3.5907,3.5959,3.6043,3.6127,3.626,3.6254,3.6315,3.6345,3.6407,3.65,3.6391,3.6394,3.6408,3.664,3.6646,3.6664,3.6507,3.651,3.6513,3.6632,0,3.5402,3.5583,3.563,3.5782,3.5873,3.5897,3.5983,3.606,3.6108,3.6191,3.6242,3.6336,3.632,3.6357,3.6419,3.6476,3.6548,3.6468,3.6583,3.6587,3.656,3.6686,3.6693,3.6802,3.6649,3.6652,3.6654,0,3.5562,3.5651,3.5813,3.5913,3.5953,3.603,3.613,3.6209,3.6296,3.6326,3.6394,3.6418,3.652,3.6482,3.6622,3.6567,3.6616,3.6651,3.6656,3.6669,3.6625,3.6702,3.6838,3.6854,3.6679,3.6677,3.6675,0,3.5622,3.5782,3.5899,3.5945,3.6065,3.6118,3.617,3.6254,3.6314,3.64,3.6439,3.6536,3.6588,3.6661,3.671,3.6678,3.6845,3.6812,3.6872,3.6871,3.6907,3.6904,3.7053,3.6938,3.6938,3.6938,3.6937,0,3.5747,3.5844,3.5928,3.6,3.6109,3.6161,3.6267,3.6319,3.6394,3.6475,3.6501,3.6576,3.6635,3.6718,3.6756,3.6866,3.6889,3.6915,3.6924,3.6913,3.691,3.6947,3.694,3.6942,3.6941,3.694,3.694,0,3.5832,3.5892,3.6021,3.6124,3.6151,3.6228,3.6314,3.6384,3.6431,3.6534,3.656,3.6635,3.6733,3.6789,3.6912,3.6937,3.7059,3.7065,3.7031,3.7035,3.7092,3.7086,3.727,3.7296,3.7164,3.7165,3.7166,0,3.5908,3.5984,3.6094,3.6151,3.6204,3.6295,3.6357,3.641,3.6472,3.6576,3.6633,3.6733,3.6816,3.6971,3.7035,3.7129,3.7137,3.7195,3.7151,3.7137,3.7137,3.7132,3.714,3.7202,3.7203,3.7204,3.7205,0,3.6035,3.6061,3.615,3.6249,3.6322,3.6401,3.6481,3.6525,3.659,3.6659,3.6761,3.6825,3.6951,3.705,3.7149,3.7199,3.7213,3.7218,3.7237,3.7227,3.7204,3.7217,3.7051,3.7214,3.7213,3.7213,3.7212,3.7212,3.6118,3.6186,3.6275,3.6372,3.6437,3.651,3.6581,3.6638,3.6724,3.6832,3.6857,3.6964,3.7047,3.7181,3.7234,3.7317,3.7306,3.7334,3.7341,3.7347,3.7349,3.7191,3.7335,3.7335,3.7335,3.7335,3.7335,0,3.6247,3.6305,3.6394,3.6504,3.658,3.6588,3.6675,3.6738,3.6832,3.6909,3.699,3.7106,3.7201,3.7272,3.7369,3.7421,3.743,3.7445,3.7442,3.7453,3.7353,3.7327,3.7437,3.7437,3.7437,3.7437,3.7436,3.7436,3.6323,3.6439,3.6474,3.6622,3.6678,3.6785,3.6834,3.6901,3.6962,3.7091,3.7171,3.7217,3.7291,3.7394,3.7481,3.7499,3.7533,3.7547,3.7566,3.7471,3.746,3.745,3.7426,3.7554,3.7554,3.7659,3.766,3.7661]}]]